Lebanon, NH

1:32 PM EDT on August 19, 2017 (GMT -0400)
Lebanon Municipal

Weather History for KLEB - February, 2013

Change the Weather History Date:

Wednesday, February 6, 2013

  Actual Average Record
Temperature  
Mean Temperature 26 °F -  
Max Temperature 35 °F 28 °F 50 °F (2005)
Min Temperature 14 °F 6 °F -20 °F (1935)
Degree Days  
Heating Degree Days 39    
Moisture  
Dew Point 10 °F    
Average Humidity 55    
Maximum Humidity 82    
Minimum Humidity 32    
Precipitation  
Precipitation 0.00 in - - ()
Sea Level Pressure  
Sea Level Pressure 30.05 in    
Wind  
Wind Speed 4 mph (WNW)    
Max Wind Speed 16 mph    
Max Gust Speed 24 mph    
Visibility 10 miles    
Events Snow    
Averages and records for this station are not official NWS values.
T = Trace of Precipitation, MM = Missing Value Source: NWS Daily Summary

Daily Weather History Graph

Daily Weather History Graph

Search for Another Location

Airport or City:

Trip Planner

Search our weather history database for the weather conditions in past years. The results will help you decide how hot, cold, wet, or windy it might be!

Date:

Astronomy

Feb. 06, 2013 Rise Set
Actual Time 6:59 AM EST 5:07 PM EST
Civil Twilight 6:29 AM EST 5:37 PM EST
Nautical Twilight 5:55 AM EST 6:11 PM EST
Astronomical Twilight 5:22 AM EST 6:45 PM EST
Moon 3:44 AM EST (2/6) 1:19 PM EST (2/6)
Length of Visible Light 11h 08m
Length of Day
10h 08m
Waning Crescent, 17% of the Moon is Illuminated
Feb 6
Waning Crescent
Feb 10
New
Feb 17
First Quarter
Feb 25
Full
Mar 4
Last Quarter

Hourly Weather History & Observations

Time (EST) Temp. Windchill Dew Point Humidity Pressure Visibility Wind Dir Wind Speed Gust Speed Precip Events Conditions
12:53 AM 19.9 °F - 10.9 °F 68% 29.92 in 10.0 mi Calm Calm - N/A   Overcast
1:53 AM 21.0 °F - 9.0 °F 60% 29.92 in 10.0 mi Calm Calm - N/A   Overcast
2:53 AM 21.0 °F - 10.9 °F 65% 29.91 in 10.0 mi Calm Calm - N/A   Overcast
3:53 AM 19.9 °F - 12.0 °F 71% 29.90 in 10.0 mi Calm Calm - N/A   Overcast
4:53 AM 19.9 °F - 12.9 °F 74% 29.92 in 10.0 mi Calm Calm - N/A   Overcast
5:53 AM 21.0 °F - 14.0 °F 74% 29.94 in 5.0 mi Calm Calm - 0.00 in Snow Light Snow
6:53 AM 19.9 °F - 15.1 °F 81% 29.95 in 10.0 mi Calm Calm - 0.00 in   Overcast
7:53 AM 21.9 °F - 17.1 °F 82% 29.96 in 10.0 mi Calm Calm - N/A   Overcast
8:53 AM 26.1 °F 21.9 °F 19.0 °F 75% 29.96 in 10.0 mi South 3.5 mph - N/A   Overcast
9:53 AM 30.0 °F 20.5 °F 19.0 °F 64% 29.96 in 10.0 mi South 11.5 mph - N/A   Mostly Cloudy
10:53 AM 32.0 °F 25.6 °F 19.9 °F 61% 29.97 in 10.0 mi SSW 6.9 mph - N/A   Scattered Clouds
11:53 AM 33.1 °F 26.9 °F 18.0 °F 54% 29.96 in 10.0 mi West 6.9 mph - N/A   Overcast
12:53 PM 34.0 °F 25.0 °F 16.0 °F 48% 29.99 in 8.0 mi West 12.7 mph 20.7 mph N/A   Overcast
1:02 PM 33.8 °F 27.7 °F 17.6 °F 52% 29.95 in 5.0 mi West 6.9 mph 20.7 mph 0.00 in Snow Light Snow
1:53 PM 32.0 °F 24.8 °F 17.1 °F 54% 29.99 in 10.0 mi NW 8.1 mph - 0.00 in   Overcast
2:53 PM 35.1 °F 25.2 °F 9.0 °F 34% 30.01 in 10.0 mi West 16.1 mph 24.2 mph N/A   Partly Cloudy
3:53 PM 32.0 °F 22.1 °F 5.0 °F 32% 30.05 in 10.0 mi WNW 13.8 mph 23.0 mph N/A   Mostly Cloudy
4:53 PM 30.9 °F 24.3 °F 6.1 °F 35% 30.09 in 10.0 mi West 6.9 mph - N/A   Overcast
5:53 PM 27.0 °F 18.7 °F 12.9 °F 56% 30.14 in 10.0 mi North 8.1 mph - N/A   Scattered Clouds
6:53 PM 25.0 °F 16.3 °F 7.0 °F 46% 30.19 in 10.0 mi NW 8.1 mph - N/A   Clear
7:53 PM 23.0 °F 14.7 °F 3.0 °F 42% 30.23 in 10.0 mi NNW 6.9 mph - N/A   Clear
8:53 PM 21.0 °F 11.4 °F -0.9 °F 38% 30.27 in 10.0 mi North 8.1 mph - N/A   Clear
9:53 PM 19.0 °F 7.5 °F -5.1 °F 34% 30.30 in 10.0 mi North 10.4 mph - N/A   Clear
10:53 PM 17.1 °F 8.7 °F -6.0 °F 36% 30.32 in 10.0 mi North 5.8 mph - N/A   Clear
11:53 PM 14.0 °F 6.5 °F -5.1 °F 43% 30.34 in 10.0 mi NE 4.6 mph - N/A   Clear